Location: Unspecified
(0.0000°N, 0.0000°E)
Time: 19:01:53
(UTC+00:00)

LightSail 2 - Pass Details

Date: 20 November 2019
Orbit: 696 x 730 km, 24.0° (Epoch: 08 December)

Event Time Altitude Azimuth Distance (km) Brightness Sun altitude
Rises 19:26:18 0° 247° (WSW) 3,063 9.9 -23.6°
Reaches altitude 10° 19:28:44 10° 248° (WSW) 2,142 8.7 -24.2°
Maximum altitude 19:33:47 79° 334° (NNW) 706 5.0 -25.3°
Enters shadow 19:33:52 78° 350° (N) 706 5.0 -25.3°
